Douglas Bisbee, AZ

10:05 PM MST on September 21, 2017 (GMT -0700)
Bisbee Douglas International

Weather History for KDUG - November, 2012

Change the Weather History Date:

Monday, November 5, 2012

  Actual Average Record
Temperature  
Mean Temperature 60 °F 57 °F  
Max Temperature 83 °F 75 °F 85 °F (2007)
Min Temperature 37 °F 40 °F 24 °F (1990)
Degree Days  
Heating Degree Days 5 8  
Month to date heating degree days 21 37  
Since 1 July heating degree days 68 120  
Cooling Degree Days 0 0  
Month to date cooling degree days 0 0  
Year to date cooling degree days 2055 1812  
Growing Degree Days 10 (Base 50)    
Moisture  
Dew Point 20 °F    
Average Humidity 27    
Maximum Humidity 44    
Minimum Humidity 9    
Precipitation  
Precipitation 0.00 in 0.02 in 0.11 in (1995)
Month to date precipitation 0.00 0.12  
Year to date precipitation 7.15 11.56  
Snow  
Snow 0.00 in - - ()
Month to date snowfall 0.0  
Snow Depth 0.00 in    
Sea Level Pressure  
Sea Level Pressure 30.07 in    
Wind  
Wind Speed 4 mph (North)    
Max Wind Speed 12 mph    
Max Gust Speed 14 mph    
Visibility 10 miles    
Events      
T = Trace of Precipitation, MM = Missing Value Source: NWS Daily Summary

Daily Weather History Graph

Daily Weather History Graph

Search for Another Location

Airport or City:

Trip Planner

Search our weather history database for the weather conditions in past years. The results will help you decide how hot, cold, wet, or windy it might be!

Date:

Astronomy

Nov. 05, 2012 Rise Set
Actual Time 6:38 AM MST 5:25 PM MST
Civil Twilight 6:12 AM MST 5:50 PM MST
Nautical Twilight 5:43 AM MST 6:19 PM MST
Astronomical Twilight 5:15 AM MST 6:48 PM MST
Moon 11:05 PM MST (11/5) 11:58 AM MST (11/5)
Length of Visible Light 11h 38m
Length of Day
10h 47m
Waning Gibbous, 62% of the Moon is Illuminated
Nov 5
Waning Gibbous
Nov 6
Last Quarter
Nov 13
New
Nov 20
First Quarter
Nov 28
Full

Hourly Weather History & Observations

Time (MST) Temp. Windchill Dew Point Humidity Pressure Visibility Wind Dir Wind Speed Gust Speed Precip Events Conditions
12:56 AM 48.0 °F - 21.9 °F 36% 30.07 in 10.0 mi NNW 11.5 mph - N/A   Clear
1:56 AM 51.1 °F - 23.0 °F 33% 30.06 in 10.0 mi North 9.2 mph - N/A   Clear
2:56 AM 45.0 °F - 21.9 °F 40% 30.07 in 10.0 mi Calm Calm - N/A   Clear
3:56 AM 41.0 °F - 19.4 °F 42% 30.20 in 10.0 mi Calm Calm - N/A   Clear
4:56 AM 43.0 °F - 19.9 °F 40% 30.08 in 10.0 mi Calm Calm - N/A   Clear
5:56 AM 39.0 °F - 19.9 °F 46% 30.12 in 10.0 mi Calm Calm - N/A   Clear
6:56 AM 39.0 °F 36.8 °F 19.0 °F 45% 30.14 in 10.0 mi ENE 3.5 mph - N/A   Clear
7:56 AM 46.9 °F - 21.0 °F 36% 30.15 in - Calm Calm - N/A   Clear
8:56 AM 57.9 °F - 25.0 °F 28% 30.15 in - NW 3.5 mph - N/A   Clear
9:56 AM 70.0 °F - 26.1 °F 19% 30.12 in - Variable 4.6 mph - N/A   Clear
10:56 AM 75.0 °F - 25.0 °F 16% 30.09 in - Calm Calm - N/A   Clear
11:56 AM 77.0 °F - 27.0 °F 16% 30.06 in - Calm Calm - N/A   Clear
12:56 PM 80.1 °F - 23.0 °F 12% 30.03 in - WSW 6.9 mph - N/A   Clear
1:56 PM 81.0 °F - 19.9 °F 10% 30.00 in - Variable 6.9 mph - N/A   Clear
2:56 PM 80.1 °F - 18.0 °F 10% 30.00 in - Calm Calm - N/A   Clear
3:56 PM 81.0 °F - 16.0 °F 9% 30.01 in - North 6.9 mph - N/A   Clear
4:56 PM 79.0 °F - 18.0 °F 10% 30.01 in - NW 4.6 mph - N/A   Clear
5:56 PM 75.9 °F - 19.0 °F 12% 30.03 in - Calm Calm - N/A   Clear
6:56 PM 64.0 °F - 16.0 °F 16% 30.07 in - NE 8.1 mph - N/A   Clear
7:56 PM 57.0 °F - 12.0 °F 17% 30.08 in - ENE 3.5 mph - N/A   Clear
8:56 PM 53.1 °F - 12.0 °F 20% 30.07 in - Calm Calm - N/A   Clear
9:56 PM 52.0 °F - 14.0 °F 22% 30.06 in - NW 8.1 mph - N/A   Clear
10:56 PM 51.1 °F - 16.0 °F 25% 30.06 in - North 10.4 mph - N/A   Clear
11:56 PM 51.1 °F - 16.0 °F 25% 30.04 in - North 10.4 mph - N/A   Clear